Location: College Rock
(37.2713°N, 119.1740°W)
Time: 13:25:53
(UTC+00:00)

CZ-4B R/B - Pass Details

Date: 29 October 2020
Orbit: 388 x 461 km, 97.6° (Epoch: 01 December)

Event Time Altitude Azimuth Distance (km) Brightness Sun altitude
Rises 12:03:28 0° 140° (SE) 2,483 5.6 -27.4°
Reaches altitude 10° 12:05:46 10° 126° (SE) 1,610 4.8 -27.0°
Maximum altitude 12:08:34 24° 71° (ENE) 1,011 3.8 -26.4°
Drops below altitude 10° 12:11:23 10° 17° (NNE) 1,606 4.4 -25.9°
Enters shadow 12:11:34 - 15° (NNE) 1,670 4.5 -25.8°
